Time,TemperatureF,DewpointF,PressureIn,WindDirection,WindDirectionDegrees,WindSpeedMPH,WindSpeedGustMPH,Humidity,HourlyPrecipIn,Conditions,Clouds,dailyrainin,SoftwareType,DateUTC
2013-12-10 18:00:00,27.0,21.6,29.84,NW,315,0.2,0.2,80,0.00,,,0.00,WUHU216HW,2013-12-10 23:00:00,
2013-12-10 18:05:00,27.0,21.6,29.85,NW,315,0.2,1.8,80,0.00,,,0.00,WUHU216HW,2013-12-10 23:05:00,
2013-12-10 18:10:00,27.0,21.6,29.85,NW,315,0.2,1.8,80,0.00,,,0.00,WUHU216HW,2013-12-10 23:10:00,
2013-12-10 18:33:00,27.2,21.8,29.86,NW,315,0.4,0.4,80,0.00,,,0.00,WUHU216HW,2013-12-10 23:33:00,
2013-12-10 18:38:00,27.2,21.5,29.86,NW,315,0.7,1.3,79,0.00,,,0.00,WUHU216HW,2013-12-10 23:38:00,
2013-12-10 18:43:00,27.2,21.5,29.86,NW,315,0.9,1.8,79,0.00,,,0.00,WUHU216HW,2013-12-10 23:43:00,
2013-12-10 18:48:00,27.2,20.9,29.86,NW,315,0.7,2.5,77,0.00,,,0.00,WUHU216HW,2013-12-10 23:48:00,
2013-12-10 18:53:00,27.2,20.3,29.86,NW,315,2.5,2.5,75,0.00,,,0.00,WUHU216HW,2013-12-10 23:53:00,
2013-12-10 18:58:00,27.2,20.3,29.86,NW,315,1.3,6.3,75,0.00,,,0.00,WUHU216HW,2013-12-10 23:58:00,
2013-12-10 19:03:00,27.0,19.4,29.86,NW,315,2.0,6.3,73,0.00,,,0.00,WUHU216HW,2013-12-11 00:03:00,
2013-12-10 19:08:00,27.0,19.4,29.87,NW,315,1.3,3.1,73,0.00,,,0.00,WUHU216HW,2013-12-11 00:08:00,
2013-12-10 19:13:00,26.6,19.7,29.87,NW,315,1.1,1.8,75,0.00,,,0.00,WUHU216HW,2013-12-11 00:13:00,
2013-12-10 19:18:00,26.3,19.4,29.87,NW,315,0.4,1.8,75,0.00,,,0.00,WUHU216HW,2013-12-11 00:18:00,
2013-12-10 19:23:00,26.3,19.4,29.88,NW,315,1.6,1.8,75,0.00,,,0.00,WUHU216HW,2013-12-11 00:23:00,
2013-12-10 19:28:00,26.3,19.4,29.88,NW,315,0.4,3.6,75,0.00,,,0.00,WUHU216HW,2013-12-11 00:28:00,
2013-12-10 19:33:00,26.1,19.2,29.88,NW,315,0.7,3.6,75,0.00,,,0.00,WUHU216HW,2013-12-11 00:33:00,
2013-12-10 19:38:00,25.7,18.8,29.88,NW,315,1.8,2.5,75,0.00,,,0.00,WUHU216HW,2013-12-11 00:38:00,
2013-12-10 19:43:00,25.6,18.7,29.87,NW,315,1.3,2.5,75,0.00,,,0.00,WUHU216HW,2013-12-11 00:43:00,
2013-12-10 19:48:00,25.6,18.7,29.87,NW,315,1.6,2.5,75,0.00,,,0.00,WUHU216HW,2013-12-11 00:48:00,
2013-12-10 19:53:00,25.6,18.1,29.87,NW,315,2.5,2.5,73,0.00,,,0.00,WUHU216HW,2013-12-11 00:53:00,
2013-12-10 19:58:00,25.6,17.7,29.87,NW,315,0.4,3.1,72,0.00,,,0.00,WUHU216HW,2013-12-11 00:58:00,
2013-12-10 20:03:00,25.4,17.6,29.87,NW,315,1.8,3.1,72,0.00,,,0.00,WUHU216HW,2013-12-11 01:03:00,
2013-12-10 20:08:00,25.2,17.1,29.87,NW,315,1.3,3.8,71,0.00,,,0.00,WUHU216HW,2013-12-11 01:08:00,
2013-12-10 20:13:00,25.2,17.4,29.88,NW,315,1.1,3.8,72,0.00,,,0.00,WUHU216HW,2013-12-11 01:13:00,
2013-12-10 20:18:00,25.0,17.2,29.88,NW,315,1.3,3.8,72,0.00,,,0.00,WUHU216HW,2013-12-11 01:18:00,
2013-12-10 20:23:00,25.2,16.4,29.88,NW,315,1.8,3.4,69,0.00,,,0.00,WUHU216HW,2013-12-11 01:23:00,
2013-12-10 20:28:00,25.2,16.4,29.88,NW,315,2.5,4.0,69,0.00,,,0.00,WUHU216HW,2013-12-11 01:28:00,
2013-12-10 20:33:00,25.0,15.8,29.88,NW,315,2.0,5.4,68,0.00,,,0.00,WUHU216HW,2013-12-11 01:33:00,
2013-12-10 20:38:00,25.0,15.6,29.88,NW,315,2.5,5.4,67,0.00,,,0.00,WUHU216HW,2013-12-11 01:38:00,
2013-12-10 20:43:00,25.0,15.2,29.89,NW,315,3.4,5.4,66,0.00,,,0.00,WUHU216HW,2013-12-11 01:43:00,
2013-12-10 20:48:00,25.2,15.0,29.89,NW,315,1.6,4.7,65,0.00,,,0.00,WUHU216HW,2013-12-11 01:48:00,
2013-12-10 20:53:00,25.0,15.2,29.90,NW,315,1.1,3.4,66,0.00,,,0.00,WUHU216HW,2013-12-11 01:53:00,
2013-12-10 20:58:00,24.8,15.4,29.90,NW,315,0.9,2.5,67,0.00,,,0.00,WUHU216HW,2013-12-11 01:58:00,
2013-12-10 21:03:00,24.7,15.8,29.90,NW,315,0.9,1.3,69,0.00,,,0.00,WUHU216HW,2013-12-11 02:03:00,
2013-12-10 21:08:00,24.3,15.6,29.90,NW,315,0.4,1.3,69,0.00,,,0.00,WUHU216HW,2013-12-11 02:08:00,
2013-12-10 21:13:00,24.1,15.8,29.91,NW,315,0.7,1.3,70,0.00,,,0.00,WUHU216HW,2013-12-11 02:13:00,